SCP
0 0 0 0 0 0 0 0 0 0 0 0 0 0 0 0 0 0 0 0 0 0 0 0 0 0 0 0 0 0 0 0 0 0 0 0 0 0 0 0 0 0 0 0 0 0 0 0 0 0 0 0 0 0
0 0 0 0 0 0 0 0 0 0 0 0 0 0 0 0 0 0 0 0 0 0 0 0 0 0 0 0 0 0 0 0 0 0 0 0 0 0 0 0 0 0 0 0 0 0 0 0 0 0 0 0 0 0
0 0 0 0 0 0 0 0 0 0 0 0 0 0 0 0 0 0 0 0 0 0 0 0 0 0 0 0 0 0 0 0 0 0 0 0 0 0 0 0 0 0 0 0 0 0 0 0 0 0 0 0 0 0
0 0 0 0 0 0 0 0 0 0 0 0 0 0 0 0 0 0 0 0 0 0 0 0 0 0 0 0 0 0 0 0 0 0 0 0 0 0 0 0 0 0 0 0 0 0 0 0 0 0 0 0 0 0
0 0 0 0 0 0 0 0 0 0 0 0 0 0 0 0 0 0 0 0 0 0 0 0 0 0 0 0 0 0 0 0 0 0 0 0 0 0 0 0 0 0 0 0 0 0 0 0 0 0 0 0 0 0
0 0 0 0 0 0 0 0 0 0 0 0 0 0 0 0 0 0 0 0 0 0 0 0 0 0 0 0 0 0 0 0 0 0 0 0 0 0 0 0 0 0 0 0 0 0 0 0 -0 0 0 0 0 0
0 0 0 0 0 0 0 0 0 0 0 0 0 0 0 0 0 0 0 0 0 0 0 0 0 0 0 0 0 0 0 0 0 0 0 0 0 0 0 0 0 0 0 0 0 0 0 0 0 0 0 0 0 0
0 0 0 0 0 0 0 0 0 0 0 0 0 0 0 0 0 0 0 -0 0 0 0 0 0 0 0 0 0 0 0 0 0 0 0 0 0 0 0 0 0 0 0 0 0 0 0 0 0 0 0 0 0 0
0 0 0 0 0 0 0 0 0 0 0 0 0 0 0 0 0 0 0 -0 0 0 0 0 0 0 0 0 0 0 0 0 0 0 0 0 0 0 0 0 0 0 0 0 0 0 0 0 0 0 0 0 0 0
0 0 0 0 0 0 0 0 0 0 0 0 0 0 0 0 0 0 0 0 0 0 0 0 0 0 0 0 0 0 0 0 0 0 0 0 0 0 0 0 0 0 0 0 0 0 0 0 0 0 0 0 0 0
0 0 0 0 0 0 0 0 0 0 0 0 0 0 0 0 0 0 0 0 0 0 0 0 0 0 0 0 0 0 0 0 0 0 0 0 0 0 0 0 0 0 0 0 0 0 0 0 0 0 0 0 0 0
0 0 0 0 0 0 0 0 0 0 0 0 0 0 0 0 0 0 0 0 0 0 0 0 0 0 0 0 0 0 0 0 0 0 0 0 0 0 0 0 0 0 0 0 0 0 0 0 0 0 0 0 0 0
0 0 0 0 0 0 0 0 0 0 0 0 0 0 0 0 0 0 0 0 0 0 0 0 0 0 0 0 0 0 0 0 0 0 0 0 0 0 0 0 0 0 0 0 0 0 0 0 0 0 0 0 0 0
0 0 0 0 0 0 0 0 0 0 0 0 0 0 0 0 0 0 0 0 0 0 0 0 0 0 0 0 0 0 0 0 0 0 0 0 0 0 0 0 0 0 0 0 0 0 0 0 0 0 0 0 0 0
0 0 0 0 0 0 0 0 0 0 0 0 0 0 0 0 0 0 0 0 0 0 0 0 0 0 0 0 0 0 0 0 0 0 0 0 0 0 0 -0 -0 -0 -0 -0 0 0 0 0 0 0 0 0 0 0
0 0 0 0 0 0 0 0 0 0 0 0 0 0 0 0 0 0 0 0 0 0 0 0 0 0 0 0 0 0 0 0 0 0 0 0 -0 -0 -0 -0 -0 -0 -0 -0 -0 0 0 0 0 0 0 0 0 0
0 0 0 0 0 0 0 0 0 0 0 0 0 0 0 0 0 0 0 0 0 0 0 0 0 0 0 0 0 0 0 0 0 0 0 0 -0 -0 0 0 0 0 0 0 -0 -0 0 0 0 0 0 0 0 0
0 0 0 0 0 0 0 0 0 0 0 0 0 0 0 0 0 0 0 0 0 0 0 0 0 0 -0 0 0 -0 -0 -0 0 0 0 0 -0 -0 -0 0 0 0 0 -0 -0 0 0 0 0 0 0 0 0 0
0 0 0 0 0 0 0 0 0 0 0 0 0 0 0 0 0 0 0 0 0 0 0 0 0 0 0 0 0 -0 -0 -0 -0 -0 -0 -0 -0 -0 -0 0 0 0 0 0 0 0 0 0 0 0 0 0 0 0
0 0 0 0 0 0 0 0 0 0 0 0 0 0 0 0 0 0 0 0 0 0 0 0 0 0 0 0 0 0 0 0 0 0 -0 0 0 -0 -0 0 0 0 0 0 0 0 0 0 0 0 0 0 0 0
0 0 0 0 0 0 0 0 0 0 0 0 0 0 0 0 0 0 0 0 0 0 0 0 0 0 0 0 0 0 0 0 0 0 0 0 0 -0 -0 0 0 0 0 0 0 0 0 0 0 0 0 0 0 0
0 0 0 0 0 0 0 0 0 0 0 0 0 0 0 0 0 0 0 0 0 0 0 0 0 0 0 0 0 0 0 0 0 0 0 0 -0 -0 0 0 0 0 0 0 0 0 0 0 0 0 0 0 0 0
0 0 0 0 0 0 0 0 0 0 0 0 0 0 0 0 0 0 0 0 0 0 0 0 0 0 0 0 0 0 0 0 0 0 0 0 0 0 0 0 0 0 0 0 0 0 0 0 0 0 0 0 0 0
0 0 0 0 0 0 0 0 0 0 0 0 0 0 0 0 0 0 -0 -0 0 0 0 -0 0 0 0 0 0 0 0 0 0 0 0 0 0 0 0 0 0 0 0 0 0 0 0 0 0 0 0 0 0 0
0 0 0 0 0 0 0 0 0 0 0 0 0 0 0 0 0 0 0 -0 -0 -0 -0 0 0 0 0 -0 0 0 0 0 0 0 0 0 0 0 0 0 0 0 0 0 0 0 0 0 0 0 0 0 0 0
0 0 0 0 0 0 0 0 0 0 0 0 0 0 0 -0 -0 -0 -0 -0 -0 0 0 -0 0 -0 -0 0 0 0 0 0 0 0 0 0 0 -0 -0 -0 -0 0 0 0 0 0 0 0 0 0 0 0 0 0
0 0 0 0 0 0 0 0 0 0 0 0 0 -0 -0 -0 0 -0 -0 -0 -0 -0 -0 0 0 0 0 0 0 0 0 -0 -0 -0 0 0 0 0 0 0 0 0 0 0 0 0 0 0 0 0 0 0 0 0
0 0 0 0 0 0 0 0 0 0 0 0 -0 0 0 0 -0 0 -0 -0 -0 0 0 0 0 0 0 0 0 0 -0 -0 -0 0 0 0 0 0 0 0 0 0 0 0 0 0 0 0 0 0 0 0 0 0
0 0 0 0 0 0 0 0 0 0 0 0 0 -0 -0 -0 -0 -0 0 0 0 0 0 0 0 0 0 0 0 0 0 -0 -0 -0 -0 -0 -0 -0 0 0 0 0 0 0 0 0 0 0 0 0 0 0 0 0
0 0 0 0 0 0 0 0 0 -0 -0 -0 0 -0 -0 -0 -0 0 -0 0 -0 -0 0 0 0 0 0 0 0 0 0 0 0 0 0 -0 0 0 0 0 0 0 0 0 0 0 0 0 0 0 0 0 0 0
0 0 0 0 0 0 0 -0 0 -0 0 0 -0 -0 -0 -0 -0 0 -0 -0 0 0 0 0 0 0 0 0 0 0 0 0 0 0 0 0 0 0 0 0 0 0 0 0 0 0 0 0 0 0 0 0 0 0
0 0 0 0 0 0 0 -0 -0 -0 -0 0 -0 -0 0 0 -0 0 0 0 0 0 0 0 0 0 0 0 0 0 0 0 0 0 0 0 0 0 0 0 0 0 0 0 0 0 0 0 0 0 0 -0 0 -0
0 0 0 0 0 0 0 0 -0 -0 0 0 -0 -0 0 0 0 0 0 0 -0 -0 0 0 0 0 0 0 0 0 0 0 0 -0 -0 0 0 -0 -0 0 0 0 -0 0 0 0 0 -0 -0 -0 -0 0 -0 -0
Wind_Speed_500mb
46 48 48 51 57 61 70 59 55 60 61 59 55 53 50 46 40 48 55 50 51 26 50 56 41 26 22 15 6 6 2 8 5 6 6 8 6 7 6 8 12 16 14 9 8 8 18 26 13 11 8 1 24 28
52 53 52 49 47 47 51 56 57 62 65 66 64 61 60 56 49 49 67 60 60 66 28 26 44 54 54 60 43 24 11 10 21 6 6 1 4 2 7 8 3 7 14 7 19 14 9 52 28 27 18 6 14 25
47 48 49 52 48 48 49 48 50 52 54 57 62 64 61 61 54 55 64 70 64 50 57 62 70 84 76 80 64 35 32 31 18 19 4 6 11 6 8 12 12 11 19 9 4 18 30 43 53 60 56 38 40 38
45 46 47 46 50 50 51 46 45 47 46 46 48 55 59 60 59 54 67 76 75 19 13 22 52 67 81 59 61 83 75 40 28 27 16 8 8 21 10 16 14 13 12 7 17 41 51 77 76 62 62 68 61 56
48 47 46 46 48 48 46 46 45 45 48 48 46 46 50 51 50 53 68 82 82 61 9 17 32 43 50 51 53 60 77 70 44 17 10 10 21 20 21 19 33 37 36 20 25 59 35 54 48 31 29 31 42 49
50 49 49 47 48 47 47 48 47 44 46 47 48 46 44 43 44 50 48 67 78 83 25 6 29 40 57 67 62 60 65 63 46 21 16 21 42 23 7 10 11 58 75 85 75 91 77 93 84 85 71 68 58 57
53 52 50 48 47 47 47 48 50 48 45 46 50 52 47 43 41 44 20 15 30 71 20 7 11 12 40 42 38 47 53 37 43 24 16 22 4 44 6 30 26 25 47 69 82 85 78 91 61 70 68 61 55 57
55 54 53 51 48 47 46 47 46 46 44 41 44 48 49 48 53 61 66 72 63 55 18 6 4 5 24 12 11 26 19 28 21 14 9 10 18 13 12 40 64 68 80 91 105 105 96 89 81 80 77 70 61 62
57 57 55 54 52 50 48 45 44 45 43 41 45 49 53 46 39 34 28 33 45 48 10 13 8 7 27 13 12 16 18 7 14 9 10 21 10 15 40 40 63 63 55 73 77 69 70 77 82 82 77 80 82 81
59 57 56 55 53 52 48 44 42 41 40 39 40 19 12 13 24 28 13 15 20 20 16 5 11 7 23 16 14 13 16 6 7 11 15 9 14 76 80 81 74 61 64 81 73 73 71 79 70 75 80 76 69 69
60 58 57 56 54 52 47 44 40 36 35 32 14 16 28 24 12 10 11 11 14 6 12 17 35 21 26 9 9 22 5 5 7 8 12 8 8 38 84 88 102 96 101 101 95 90 87 84 77 66 69 61 54 50
62 60 57 56 55 52 49 43 40 37 38 18 15 18 16 10 14 10 8 8 9 9 16 12 19 31 19 17 10 15 8 9 11 16 6 6 13 80 68 76 68 64 73 75 75 74 75 73 73 70 69 63 54 45
64 61 58 57 56 52 50 46 41 42 38 41 32 11 9 14 15 11 12 6 6 10 17 15 5 10 12 23 10 7 10 9 15 6 6 10 43 83 61 58 59 65 69 66 62 65 58 56 51 51 53 47 38 36
66 64 59 58 57 54 54 47 43 38 29 19 16 13 13 10 10 8 8 5 10 10 7 12 9 11 14 7 7 10 9 4 5 6 12 18 55 48 42 40 37 50 55 52 51 43 44 40 34 37 36 28 25 24
65 65 61 60 57 55 57 49 46 41 31 17 15 12 14 21 24 20 22 16 16 14 5 8 13 18 9 10 10 8 10 10 14 12 11 35 20 31 45 47 48 43 37 24 36 36 35 32 34 33 26 18 15 12
61 61 68 61 57 57 59 50 46 43 19 17 18 10 13 20 18 37 43 39 37 30 22 10 7 10 14 7 13 14 9 12 7 9 46 41 47 43 47 51 54 46 30 18 28 45 40 27 22 18 12 8 5 4
58 70 64 62 57 57 58 50 37 24 16 16 14 39 40 38 35 37 43 43 34 30 6 5 10 14 9 11 9 8 11 14 20 46 61 66 57 77 77 70 68 68 52 32 14 6 22 23 19 13 4 4 5 8
68 64 63 59 52 50 59 50 20 19 19 34 9 26 48 52 52 54 54 51 43 44 36 15 15 18 19 28 43 26 13 44 54 64 66 64 61 62 67 61 70 66 51 34 21 13 19 22 13 14 12 8 7 10
69 66 63 57 50 51 24 20 26 10 36 38 46 56 54 55 59 59 59 58 59 57 40 14 11 11 19 21 26 62 61 47 46 50 58 63 65 64 62 65 67 74 55 33 28 23 20 21 21 22 21 13 14 18
65 63 59 57 56 26 18 17 23 19 13 36 57 53 55 51 60 60 59 58 59 48 16 15 28 49 57 79 81 80 84 85 82 78 80 82 81 71 77 75 69 61 59 44 42 40 39 35 28 27 25 14 16 25
58 62 58 58 68 47 17 15 21 13 15 15 28 48 42 43 51 56 61 65 36 31 24 51 68 80 85 88 88 90 89 82 79 75 72 76 85 72 77 78 65 65 70 63 59 51 47 46 38 30 18 21 27 37
56 58 57 64 33 23 25 27 12 10 16 18 24 28 24 16 32 44 56 33 35 58 66 73 80 87 89 91 96 101 102 98 95 91 88 88 85 80 81 79 70 76 77 70 66 61 50 55 46 34 26 29 31 34
56 51 46 28 16 18 4 26 19 17 7 8 11 7 6 12 40 61 9 34 62 77 87 89 93 95 96 104 96 97 96 90 85 86 90 86 83 81 83 82 76 76 79 67 57 53 56 44 51 46 37 33 36 32
51 33 19 24 20 9 17 15 13 8 13 7 7 9 8 10 31 8 15 32 70 78 79 86 87 85 83 85 85 91 97 92 91 91 89 81 78 75 69 73 75 74 71 63 55 57 55 56 58 54 45 43 38 37
19 17 20 13 21 12 11 13 11 10 11 11 10 10 8 15 5 11 25 41 71 70 65 69 70 70 72 82 85 84 84 76 74 74 81 75 75 73 70 71 71 74 63 64 58 63 57 60 76 71 58 46 40 43
16 22 16 16 10 12 11 13 15 17 9 9 14 12 13 7 17 20 23 53 60 51 44 51 63 63 65 70 69 69 85 74 65 68 77 72 71 70 68 61 59 63 62 60 61 64 66 52 63 68 60 53 42 45
13 9 14 15 14 12 7 4 12 6 10 13 8 7 8 12 18 23 63 58 53 51 62 72 75 79 87 86 76 74 63 60 53 61 64 67 65 66 67 67 68 72 61 53 54 58 49 52 56 62 65 56 43 46
13 24 14 22 13 21 11 6 12 13 10 16 8 11 12 12 21 46 69 85 83 85 92 101 113 107 93 94 99 77 57 43 45 43 50 56 58 53 49 46 46 49 56 53 44 47 52 51 55 54 60 57 46 46
8 20 27 8 6 8 13 14 11 23 41 31 18 30 34 71 79 86 87 82 87 99 106 109 111 94 71 59 50 45 42 30 34 44 46 50 50 50 48 48 47 42 41 36 34 36 41 46 49 45 40 42 44 43
13 36 11 9 13 14 17 33 28 47 53 63 67 68 74 84 91 87 87 89 87 96 95 81 73 62 65 53 40 33 27 23 31 40 44 42 40 33 31 32 36 35 34 33 34 32 30 32 33 38 39 40 42 47
24 39 7 12 11 36 54 54 53 58 60 60 67 58 74 85 96 85 76 87 87 78 68 66 65 55 44 30 28 27 23 15 19 28 37 34 28 22 17 20 24 28 30 31 34 37 40 38 38 39 42 48 51 53
34 23 10 8 12 36 29 16 17 19 29 33 45 54 53 34 36 64 52 42 44 39 37 32 32 26 20 19 21 22 18 15 15 15 23 28 25 21 18 18 24 29 32 34 34 34 32 32 38 44 49 53 56 55
11 10 7 2 2 4 14 12 7 9 13 11 27 41 37 20 15 20 29 34 31 28 22 17 18 19 18 18 17 17 11 8 7 2 4 10 9 8 9 12 23 29 32 31 31 34 36 39 46 51 53 53 53 58
Wind_Direction_500mb
287 285 280 274 270 268 264 269 263 270 272 275 276 279 279 278 268 275 272 266 245 225 243 250 240 230 245 237 233 192 4 206 164 209 193 238 229 229 306 194 180 177 167 202 196 209 268 145 119 194 232 105 189 194
281 279 281 282 277 276 276 275 277 274 268 274 274 270 274 276 271 269 270 267 261 239 253 247 258 261 249 244 246 216 236 183 199 179 230 291 286 212 225 258 196 250 203 214 191 221 213 186 213 232 243 242 255 238
285 282 279 278 278 275 275 283 287 282 277 274 272 276 271 272 268 267 276 269 254 245 264 250 254 265 254 246 238 226 237 233 217 212 212 237 228 187 210 240 219 239 223 228 281 264 257 249 255 261 255 261 265 263
287 285 283 282 279 275 275 280 284 286 286 285 282 280 277 273 271 262 262 269 260 246 251 259 253 254 265 250 233 234 232 228 241 231 203 212 215 218 222 245 226 237 150 230 264 269 279 276 270 265 267 265 266 274
282 285 286 285 283 278 274 273 278 282 286 286 288 289 286 283 270 268 259 263 264 236 254 269 261 256 253 249 243 235 231 228 227 216 226 233 241 259 266 271 250 228 237 239 257 254 270 279 283 287 277 269 263 265
279 281 284 286 284 283 277 269 271 277 281 285 289 290 293 291 281 275 272 262 259 250 249 254 267 240 231 239 232 226 229 226 212 198 220 232 222 198 250 252 216 235 232 237 254 264 266 268 276 278 277 276 272 269
276 276 278 279 283 283 281 275 270 274 278 284 286 288 291 291 285 262 257 280 315 232 224 237 250 243 217 219 214 220 219 213 215 221 235 248 219 203 246 254 241 250 235 234 247 263 260 261 260 268 272 270 272 270
272 272 273 275 277 279 282 278 273 271 277 282 285 288 290 289 284 277 279 271 275 208 224 249 278 266 186 155 187 190 191 210 221 234 222 199 216 204 251 247 252 251 249 253 256 259 259 266 272 272 269 269 262 263
271 270 270 271 273 276 279 279 274 270 273 281 287 291 292 284 269 263 274 266 253 216 225 181 203 229 170 163 166 181 193 216 219 216 210 184 189 220 236 254 253 252 240 251 262 266 267 262 262 270 265 264 264 262
269 269 268 268 268 270 274 278 276 273 269 278 289 295 266 233 258 286 283 210 232 228 220 236 221 177 179 167 176 181 201 226 226 222 182 225 238 247 255 256 262 259 259 262 262 266 263 265 263 265 264 266 267 265
268 269 268 267 265 264 267 272 272 273 267 269 241 230 255 278 271 239 239 209 211 229 213 220 219 227 208 171 186 205 201 201 239 184 200 214 253 248 252 254 257 257 259 263 260 265 266 264 268 265 266 265 266 269
266 267 267 266 264 262 261 262 262 256 245 234 255 262 261 238 232 223 221 202 207 236 195 198 228 211 170 176 189 182 211 196 241 146 213 246 249 255 250 253 263 272 276 273 275 271 277 270 268 261 258 260 265 270
264 265 264 264 262 258 255 257 254 253 258 256 247 209 186 217 234 225 203 200 233 220 206 201 240 185 155 196 215 202 219 222 133 201 234 244 260 262 264 271 279 284 287 289 286 279 271 270 266 258 255 259 263 260
260 261 262 262 260 256 251 246 249 245 239 241 200 206 199 208 239 200 227 256 245 251 225 192 221 195 195 202 232 253 213 149 237 214 229 248 257 294 305 305 304 314 310 304 294 297 283 274 265 257 253 256 253 253
257 257 258 258 257 252 249 241 241 234 229 234 224 221 210 210 229 252 271 278 279 301 307 272 244 206 192 231 197 239 199 226 205 218 226 260 307 327 326 326 337 336 317 329 342 313 296 285 277 269 255 241 235 241
255 255 252 254 254 249 249 236 235 231 231 232 228 246 254 205 235 239 243 249 260 260 249 223 262 265 237 224 201 200 187 217 230 221 258 305 317 331 336 339 341 340 323 335 341 333 317 301 280 250 233 230 220 259
252 250 250 251 252 248 244 228 223 209 226 223 216 233 238 257 251 247 253 255 248 234 213 213 267 250 299 247 232 212 221 258 318 310 303 300 311 315 319 324 321 323 314 299 295 288 300 274 249 234 226 280 309 329
246 250 250 250 249 246 229 216 204 213 224 226 207 229 229 240 242 246 250 253 256 264 256 245 260 249 251 281 291 283 324 298 294 295 297 304 311 316 318 317 325 318 311 292 273 238 231 227 230 294 278 266 291 315
245 246 244 245 242 225 180 204 207 239 224 234 240 246 245 250 250 247 252 254 253 252 250 240 240 233 245 247 252 271 287 294 287 297 302 301 301 308 305 313 319 317 308 277 265 252 253 248 253 251 264 264 278 286
242 242 240 240 235 207 178 205 197 222 223 243 245 245 240 240 245 244 250 252 252 250 238 240 245 247 253 260 262 266 269 271 275 284 286 285 289 292 292 293 298 303 307 276 257 260 257 241 232 234 241 265 286 292
239 238 235 234 232 199 188 209 205 221 224 226 240 231 234 246 244 242 245 248 241 237 244 247 254 258 260 261 262 264 265 264 266 264 268 273 278 279 279 282 283 291 293 289 257 259 253 227 213 229 237 248 261 273
234 232 232 234 220 182 212 213 213 216 226 248 260 252 230 224 243 248 250 238 236 243 247 253 254 255 258 258 258 259 259 259 259 262 265 266 270 271 272 273 276 282 284 280 255 249 260 235 205 218 233 253 263 270
226 228 220 192 178 202 218 194 194 207 212 202 201 238 228 228 244 254 230 240 252 257 258 257 259 261 261 263 265 264 262 262 263 263 262 263 264 264 263 266 269 271 272 274 253 256 266 228 211 219 228 241 253 255
216 213 198 181 173 192 173 185 183 197 213 212 198 234 263 227 259 219 249 256 262 266 266 265 264 265 266 265 262 262 262 261 260 260 260 258 258 257 257 259 262 262 266 266 257 258 251 226 219 222 228 238 249 250
204 199 186 187 176 153 163 168 186 213 233 217 198 250 255 221 206 251 272 277 275 272 271 273 272 269 264 263 264 264 266 262 256 252 256 254 254 256 256 253 258 260 261 248 254 253 249 240 220 219 226 230 248 241
224 190 197 183 158 146 170 166 191 204 200 210 226 229 213 204 248 263 260 273 274 278 284 286 280 275 272 264 263 266 271 270 260 249 253 251 247 248 249 247 246 246 247 250 261 253 245 239 227 215 218 234 243 236
208 174 171 172 167 153 149 219 198 168 198 209 226 212 205 234 246 262 270 275 284 297 307 306 300 296 292 293 287 280 284 278 267 258 264 264 258 253 249 249 249 259 264 261 244 243 236 223 220 212 220 237 238 234
181 165 154 178 193 194 174 194 176 198 215 224 192 206 219 224 250 264 282 292 288 288 293 294 300 300 293 290 292 289 285 286 264 265 258 258 259 261 265 261 263 265 257 251 252 250 224 209 208 226 237 241 231 228
142 172 173 159 159 179 201 195 212 225 235 236 247 256 257 258 269 281 286 287 286 288 288 291 296 300 293 301 304 300 294 276 248 248 245 251 257 255 256 254 252 248 245 241 226 218 220 226 232 236 234 230 226 216
194 175 151 147 164 214 228 220 238 253 252 251 257 267 272 272 274 281 286 287 283 281 285 287 284 282 301 305 301 301 297 271 247 244 250 255 264 271 269 260 251 246 238 232 229 228 219 210 204 207 208 203 197 188
184 182 186 187 215 236 244 253 257 262 267 269 271 265 271 285 290 290 289 290 287 287 284 283 288 294 291 285 290 296 304 298 265 250 247 252 258 258 256 238 227 222 218 212 207 203 201 200 201 195 191 186 182 185
183 178 171 213 246 244 241 244 250 251 263 260 262 268 270 272 284 298 290 292 293 284 287 285 282 281 264 283 280 281 287 295 297 271 243 243 246 253 261 239 219 207 199 195 195 199 200 197 189 184 179 179 182 181
171 174 163 167 320 239 208 211 254 278 244 257 267 273 264 246 243 258 274 279 287 289 290 276 253 231 251 277 276 277 283 292 307 283 162 157 177 215 226 194 184 183 186 190 189 188 186 184 179 175 177 178 171 169
Wind_Speed_850mb
46 48 48 51 57 61 70 59 55 60 61 59 55 53 50 46 40 48 55 50 51 26 50 56 41 26 22 15 6 6 2 8 5 6 6 8 6 7 6 8 12 16 14 9 8 8 18 26 13 11 8 1 24 28
52 53 52 49 47 47 51 56 57 62 65 66 64 61 60 56 49 49 67 60 60 66 28 26 44 54 54 60 43 24 11 10 21 6 6 1 4 2 7 8 3 7 14 7 19 14 9 52 28 27 18 6 14 25
47 48 49 52 48 48 49 48 50 52 54 57 62 64 61 61 54 55 64 70 64 50 57 62 70 84 76 80 64 35 32 31 18 19 4 6 11 6 8 12 12 11 19 9 4 18 30 43 53 60 56 38 40 38
45 46 47 46 50 50 51 46 45 47 46 46 48 55 59 60 59 54 67 76 75 19 13 22 52 67 81 59 61 83 75 40 28 27 16 8 8 21 10 16 14 13 12 7 17 41 51 77 76 62 62 68 61 56
48 47 46 46 48 48 46 46 45 45 48 48 46 46 50 51 50 53 68 82 82 61 9 17 32 43 50 51 53 60 77 70 44 17 10 10 21 20 21 19 33 37 36 20 25 59 35 54 48 31 29 31 42 49
50 49 49 47 48 47 47 48 47 44 46 47 48 46 44 43 44 50 48 67 78 83 25 6 29 40 57 67 62 60 65 63 46 21 16 21 42 23 7 10 11 58 75 85 75 91 77 93 84 85 71 68 58 57
53 52 50 48 47 47 47 48 50 48 45 46 50 52 47 43 41 44 20 15 30 71 20 7 11 12 40 42 38 47 53 37 43 24 16 22 4 44 6 30 26 25 47 69 82 85 78 91 61 70 68 61 55 57
55 54 53 51 48 47 46 47 46 46 44 41 44 48 49 48 53 61 66 72 63 55 18 6 4 5 24 12 11 26 19 28 21 14 9 10 18 13 12 40 64 68 80 91 105 105 96 89 81 80 77 70 61 62
57 57 55 54 52 50 48 45 44 45 43 41 45 49 53 46 39 34 28 33 45 48 10 13 8 7 27 13 12 16 18 7 14 9 10 21 10 15 40 40 63 63 55 73 77 69 70 77 82 82 77 80 82 81
59 57 56 55 53 52 48 44 42 41 40 39 40 19 12 13 24 28 13 15 20 20 16 5 11 7 23 16 14 13 16 6 7 11 15 9 14 76 80 81 74 61 64 81 73 73 71 79 70 75 80 76 69 69
60 58 57 56 54 52 47 44 40 36 35 32 14 16 28 24 12 10 11 11 14 6 12 17 35 21 26 9 9 22 5 5 7 8 12 8 8 38 84 88 102 96 101 101 95 90 87 84 77 66 69 61 54 50
62 60 57 56 55 52 49 43 40 37 38 18 15 18 16 10 14 10 8 8 9 9 16 12 19 31 19 17 10 15 8 9 11 16 6 6 13 80 68 76 68 64 73 75 75 74 75 73 73 70 69 63 54 45
64 61 58 57 56 52 50 46 41 42 38 41 32 11 9 14 15 11 12 6 6 10 17 15 5 10 12 23 10 7 10 9 15 6 6 10 43 83 61 58 59 65 69 66 62 65 58 56 51 51 53 47 38 36
66 64 59 58 57 54 54 47 43 38 29 19 16 13 13 10 10 8 8 5 10 10 7 12 9 11 14 7 7 10 9 4 5 6 12 18 55 48 42 40 37 50 55 52 51 43 44 40 34 37 36 28 25 24
65 65 61 60 57 55 57 49 46 41 31 17 15 12 14 21 24 20 22 16 16 14 5 8 13 18 9 10 10 8 10 10 14 12 11 35 20 31 45 47 48 43 37 24 36 36 35 32 34 33 26 18 15 12
61 61 68 61 57 57 59 50 46 43 19 17 18 10 13 20 18 37 43 39 37 30 22 10 7 10 14 7 13 14 9 12 7 9 46 41 47 43 47 51 54 46 30 18 28 45 40 27 22 18 12 8 5 4
58 70 64 62 57 57 58 50 37 24 16 16 14 39 40 38 35 37 43 43 34 30 6 5 10 14 9 11 9 8 11 14 20 46 61 66 57 77 77 70 68 68 52 32 14 6 22 23 19 13 4 4 5 8
68 64 63 59 52 50 59 50 20 19 19 34 9 26 48 52 52 54 54 51 43 44 36 15 15 18 19 28 43 26 13 44 54 64 66 64 61 62 67 61 70 66 51 34 21 13 19 22 13 14 12 8 7 10
69 66 63 57 50 51 24 20 26 10 36 38 46 56 54 55 59 59 59 58 59 57 40 14 11 11 19 21 26 62 61 47 46 50 58 63 65 64 62 65 67 74 55 33 28 23 20 21 21 22 21 13 14 18
65 63 59 57 56 26 18 17 23 19 13 36 57 53 55 51 60 60 59 58 59 48 16 15 28 49 57 79 81 80 84 85 82 78 80 82 81 71 77 75 69 61 59 44 42 40 39 35 28 27 25 14 16 25
58 62 58 58 68 47 17 15 21 13 15 15 28 48 42 43 51 56 61 65 36 31 24 51 68 80 85 88 88 90 89 82 79 75 72 76 85 72 77 78 65 65 70 63 59 51 47 46 38 30 18 21 27 37
56 58 57 64 33 23 25 27 12 10 16 18 24 28 24 16 32 44 56 33 35 58 66 73 80 87 89 91 96 101 102 98 95 91 88 88 85 80 81 79 70 76 77 70 66 61 50 55 46 34 26 29 31 34
56 51 46 28 16 18 4 26 19 17 7 8 11 7 6 12 40 61 9 34 62 77 87 89 93 95 96 104 96 97 96 90 85 86 90 86 83 81 83 82 76 76 79 67 57 53 56 44 51 46 37 33 36 32
51 33 19 24 20 9 17 15 13 8 13 7 7 9 8 10 31 8 15 32 70 78 79 86 87 85 83 85 85 91 97 92 91 91 89 81 78 75 69 73 75 74 71 63 55 57 55 56 58 54 45 43 38 37
19 17 20 13 21 12 11 13 11 10 11 11 10 10 8 15 5 11 25 41 71 70 65 69 70 70 72 82 85 84 84 76 74 74 81 75 75 73 70 71 71 74 63 64 58 63 57 60 76 71 58 46 40 43
16 22 16 16 10 12 11 13 15 17 9 9 14 12 13 7 17 20 23 53 60 51 44 51 63 63 65 70 69 69 85 74 65 68 77 72 71 70 68 61 59 63 62 60 61 64 66 52 63 68 60 53 42 45
13 9 14 15 14 12 7 4 12 6 10 13 8 7 8 12 18 23 63 58 53 51 62 72 75 79 87 86 76 74 63 60 53 61 64 67 65 66 67 67 68 72 61 53 54 58 49 52 56 62 65 56 43 46
13 24 14 22 13 21 11 6 12 13 10 16 8 11 12 12 21 46 69 85 83 85 92 101 113 107 93 94 99 77 57 43 45 43 50 56 58 53 49 46 46 49 56 53 44 47 52 51 55 54 60 57 46 46
8 20 27 8 6 8 13 14 11 23 41 31 18 30 34 71 79 86 87 82 87 99 106 109 111 94 71 59 50 45 42 30 34 44 46 50 50 50 48 48 47 42 41 36 34 36 41 46 49 45 40 42 44 43
13 36 11 9 13 14 17 33 28 47 53 63 67 68 74 84 91 87 87 89 87 96 95 81 73 62 65 53 40 33 27 23 31 40 44 42 40 33 31 32 36 35 34 33 34 32 30 32 33 38 39 40 42 47
24 39 7 12 11 36 54 54 53 58 60 60 67 58 74 85 96 85 76 87 87 78 68 66 65 55 44 30 28 27 23 15 19 28 37 34 28 22 17 20 24 28 30 31 34 37 40 38 38 39 42 48 51 53
34 23 10 8 12 36 29 16 17 19 29 33 45 54 53 34 36 64 52 42 44 39 37 32 32 26 20 19 21 22 18 15 15 15 23 28 25 21 18 18 24 29 32 34 34 34 32 32 38 44 49 53 56 55
11 10 7 2 2 4 14 12 7 9 13 11 27 41 37 20 15 20 29 34 31 28 22 17 18 19 18 18 17 17 11 8 7 2 4 10 9 8 9 12 23 29 32 31 31 34 36 39 46 51 53 53 53 58
Wind_Direction_850mb
287 285 280 274 270 268 264 269 263 270 272 275 276 279 279 278 268 275 272 266 245 225 243 250 240 230 245 237 233 192 4 206 164 209 193 238 229 229 306 194 180 177 167 202 196 209 268 145 119 194 232 105 189 194
281 279 281 282 277 276 276 275 277 274 268 274 274 270 274 276 271 269 270 267 261 239 253 247 258 261 249 244 246 216 236 183 199 179 230 291 286 212 225 258 196 250 203 214 191 221 213 186 213 232 243 242 255 238
285 282 279 278 278 275 275 283 287 282 277 274 272 276 271 272 268 267 276 269 254 245 264 250 254 265 254 246 238 226 237 233 217 212 212 237 228 187 210 240 219 239 223 228 281 264 257 249 255 261 255 261 265 263
287 285 283 282 279 275 275 280 284 286 286 285 282 280 277 273 271 262 262 269 260 246 251 259 253 254 265 250 233 234 232 228 241 231 203 212 215 218 222 245 226 237 150 230 264 269 279 276 270 265 267 265 266 274
282 285 286 285 283 278 274 273 278 282 286 286 288 289 286 283 270 268 259 263 264 236 254 269 261 256 253 249 243 235 231 228 227 216 226 233 241 259 266 271 250 228 237 239 257 254 270 279 283 287 277 269 263 265
279 281 284 286 284 283 277 269 271 277 281 285 289 290 293 291 281 275 272 262 259 250 249 254 267 240 231 239 232 226 229 226 212 198 220 232 222 198 250 252 216 235 232 237 254 264 266 268 276 278 277 276 272 269
276 276 278 279 283 283 281 275 270 274 278 284 286 288 291 291 285 262 257 280 315 232 224 237 250 243 217 219 214 220 219 213 215 221 235 248 219 203 246 254 241 250 235 234 247 263 260 261 260 268 272 270 272 270
272 272 273 275 277 279 282 278 273 271 277 282 285 288 290 289 284 277 279 271 275 208 224 249 278 266 186 155 187 190 191 210 221 234 222 199 216 204 251 247 252 251 249 253 256 259 259 266 272 272 269 269 262 263
271 270 270 271 273 276 279 279 274 270 273 281 287 291 292 284 269 263 274 266 253 216 225 181 203 229 170 163 166 181 193 216 219 216 210 184 189 220 236 254 253 252 240 251 262 266 267 262 262 270 265 264 264 262
269 269 268 268 268 270 274 278 276 273 269 278 289 295 266 233 258 286 283 210 232 228 220 236 221 177 179 167 176 181 201 226 226 222 182 225 238 247 255 256 262 259 259 262 262 266 263 265 263 265 264 266 267 265
268 269 268 267 265 264 267 272 272 273 267 269 241 230 255 278 271 239 239 209 211 229 213 220 219 227 208 171 186 205 201 201 239 184 200 214 253 248 252 254 257 257 259 263 260 265 266 264 268 265 266 265 266 269
266 267 267 266 264 262 261 262 262 256 245 234 255 262 261 238 232 223 221 202 207 236 195 198 228 211 170 176 189 182 211 196 241 146 213 246 249 255 250 253 263 272 276 273 275 271 277 270 268 261 258 260 265 270
264 265 264 264 262 258 255 257 254 253 258 256 247 209 186 217 234 225 203 200 233 220 206 201 240 185 155 196 215 202 219 222 133 201 234 244 260 262 264 271 279 284 287 289 286 279 271 270 266 258 255 259 263 260
260 261 262 262 260 256 251 246 249 245 239 241 200 206 199 208 239 200 227 256 245 251 225 192 221 195 195 202 232 253 213 149 237 214 229 248 257 294 305 305 304 314 310 304 294 297 283 274 265 257 253 256 253 253
257 257 258 258 257 252 249 241 241 234 229 234 224 221 210 210 229 252 271 278 279 301 307 272 244 206 192 231 197 239 199 226 205 218 226 260 307 327 326 326 337 336 317 329 342 313 296 285 277 269 255 241 235 241
255 255 252 254 254 249 249 236 235 231 231 232 228 246 254 205 235 239 243 249 260 260 249 223 262 265 237 224 201 200 187 217 230 221 258 305 317 331 336 339 341 340 323 335 341 333 317 301 280 250 233 230 220 259
252 250 250 251 252 248 244 228 223 209 226 223 216 233 238 257 251 247 253 255 248 234 213 213 267 250 299 247 232 212 221 258 318 310 303 300 311 315 319 324 321 323 314 299 295 288 300 274 249 234 226 280 309 329
246 250 250 250 249 246 229 216 204 213 224 226 207 229 229 240 242 246 250 253 256 264 256 245 260 249 251 281 291 283 324 298 294 295 297 304 311 316 318 317 325 318 311 292 273 238 231 227 230 294 278 266 291 315
245 246 244 245 242 225 180 204 207 239 224 234 240 246 245 250 250 247 252 254 253 252 250 240 240 233 245 247 252 271 287 294 287 297 302 301 301 308 305 313 319 317 308 277 265 252 253 248 253 251 264 264 278 286
242 242 240 240 235 207 178 205 197 222 223 243 245 245 240 240 245 244 250 252 252 250 238 240 245 247 253 260 262 266 269 271 275 284 286 285 289 292 292 293 298 303 307 276 257 260 257 241 232 234 241 265 286 292
239 238 235 234 232 199 188 209 205 221 224 226 240 231 234 246 244 242 245 248 241 237 244 247 254 258 260 261 262 264 265 264 266 264 268 273 278 279 279 282 283 291 293 289 257 259 253 227 213 229 237 248 261 273
234 232 232 234 220 182 212 213 213 216 226 248 260 252 230 224 243 248 250 238 236 243 247 253 254 255 258 258 258 259 259 259 259 262 265 266 270 271 272 273 276 282 284 280 255 249 260 235 205 218 233 253 263 270
226 228 220 192 178 202 218 194 194 207 212 202 201 238 228 228 244 254 230 240 252 257 258 257 259 261 261 263 265 264 262 262 263 263 262 263 264 264 263 266 269 271 272 274 253 256 266 228 211 219 228 241 253 255
216 213 198 181 173 192 173 185 183 197 213 212 198 234 263 227 259 219 249 256 262 266 266 265 264 265 266 265 262 262 262 261 260 260 260 258 258 257 257 259 262 262 266 266 257 258 251 226 219 222 228 238 249 250
204 199 186 187 176 153 163 168 186 213 233 217 198 250 255 221 206 251 272 277 275 272 271 273 272 269 264 263 264 264 266 262 256 252 256 254 254 256 256 253 258 260 261 248 254 253 249 240 220 219 226 230 248 241
224 190 197 183 158 146 170 166 191 204 200 210 226 229 213 204 248 263 260 273 274 278 284 286 280 275 272 264 263 266 271 270 260 249 253 251 247 248 249 247 246 246 247 250 261 253 245 239 227 215 218 234 243 236
208 174 171 172 167 153 149 219 198 168 198 209 226 212 205 234 246 262 270 275 284 297 307 306 300 296 292 293 287 280 284 278 267 258 264 264 258 253 249 249 249 259 264 261 244 243 236 223 220 212 220 237 238 234
181 165 154 178 193 194 174 194 176 198 215 224 192 206 219 224 250 264 282 292 288 288 293 294 300 300 293 290 292 289 285 286 264 265 258 258 259 261 265 261 263 265 257 251 252 250 224 209 208 226 237 241 231 228
142 172 173 159 159 179 201 195 212 225 235 236 247 256 257 258 269 281 286 287 286 288 288 291 296 300 293 301 304 300 294 276 248 248 245 251 257 255 256 254 252 248 245 241 226 218 220 226 232 236 234 230 226 216
194 175 151 147 164 214 228 220 238 253 252 251 257 267 272 272 274 281 286 287 283 281 285 287 284 282 301 305 301 301 297 271 247 244 250 255 264 271 269 260 251 246 238 232 229 228 219 210 204 207 208 203 197 188
184 182 186 187 215 236 244 253 257 262 267 269 271 265 271 285 290 290 289 290 287 287 284 283 288 294 291 285 290 296 304 298 265 250 247 252 258 258 256 238 227 222 218 212 207 203 201 200 201 195 191 186 182 185
183 178 171 213 246 244 241 244 250 251 263 260 262 268 270 272 284 298 290 292 293 284 287 285 282 281 264 283 280 281 287 295 297 271 243 243 246 253 261 239 219 207 199 195 195 199 200 197 189 184 179 179 182 181
171 174 163 167 320 239 208 211 254 278 244 257 267 273 264 246 243 258 274 279 287 289 290 276 253 231 251 277 276 277 283 292 307 283 162 157 177 215 226 194 184 183 186 190 189 188 186 184 179 175 177 178 171 169